AFR44Y LFPG-EKCH

Flight info

Callsign AFR44Y
Flight time 1h 30m
Altitude 37000
Route NURMO DCT CMB DCT VEKIN DCT ADUTO DCT VICOT DCT EEL DCT TALSA P729 TUDLO
Aircraft A320/M-SDE3FGHIRWY/LB1

Departure

Time 2026-05-09 10:08
Airport Charles de Gaulle International Airport (LFPG)

Arrival

Time 2026-05-09 11:38
Airport Copenhagen Kastrup Airport (EKCH)
Time Latitude Longitude Altitude Speed Heading
2026-05-09 09:36 49.00268 2.57953 354 ft 0 kts 232°
2026-05-09 09:42 49.00270 2.57958 354 ft 0 kts 232°
2026-05-09 09:43 49.00269 2.57955 354 ft 0 kts 232°
2026-05-09 09:56 49.00269 2.57956 354 ft 1 kts 232°
2026-05-09 09:56 49.00282 2.57980 357 ft 3 kts 227°
2026-05-09 09:57 49.00298 2.58013 359 ft 3 kts 95°
2026-05-09 09:57 49.00312 2.58081 355 ft 3 kts 239°
2026-05-09 09:57 49.00322 2.58119 358 ft 3 kts 93°
2026-05-09 09:57 49.00327 2.58192 354 ft 3 kts 266°
2026-05-09 09:58 49.00331 2.58253 354 ft 3 kts 253°
2026-05-09 09:58 49.00344 2.58284 361 ft 0 kts 187°
2026-05-09 10:00 49.00340 2.58284 361 ft 2 kts 180°
2026-05-09 10:00 49.00310 2.58289 356 ft 6 kts 171°
2026-05-09 10:01 49.00254 2.58297 354 ft 10 kts 176°
2026-05-09 10:01 49.00173 2.58306 354 ft 14 kts 175°
2026-05-09 10:01 49.00067 2.58321 357 ft 17 kts 173°
2026-05-09 10:01 49.00011 2.58263 359 ft 11 kts 263°
2026-05-09 10:02 49.00003 2.58130 354 ft 14 kts 266°
2026-05-09 10:02 48.99999 2.58016 358 ft 17 kts 266°
2026-05-09 10:02 48.99987 2.57915 361 ft 16 kts 259°
2026-05-09 10:02 48.99982 2.57742 356 ft 18 kts 265°
2026-05-09 10:03 48.99972 2.57544 357 ft 20 kts 265°
2026-05-09 10:03 48.99960 2.57312 355 ft 24 kts 265°
2026-05-09 10:03 48.99948 2.57047 360 ft 26 kts 265°
2026-05-09 10:03 48.99930 2.56755 357 ft 29 kts 266°
2026-05-09 10:04 48.99913 2.56436 358 ft 31 kts 265°
2026-05-09 10:04 48.99894 2.56092 355 ft 34 kts 265°
2026-05-09 10:04 48.99927 2.55755 359 ft 32 kts 288°
2026-05-09 10:04 48.99935 2.55622 356 ft 9 kts 231°
2026-05-09 10:05 48.99902 2.55529 362 ft 12 kts 242°
2026-05-09 10:05 48.99878 2.55435 356 ft 10 kts 223°
2026-05-09 10:05 48.99877 2.55433 355 ft 10 kts 219°
2026-05-09 10:05 48.99842 2.55424 354 ft 9 kts 171°
2026-05-09 10:06 48.99769 2.55451 361 ft 13 kts 166°
2026-05-09 10:06 48.99676 2.55445 360 ft 15 kts 159°
2026-05-09 10:06 48.99593 2.55560 352 ft 17 kts 128°
2026-05-09 10:06 48.99586 2.55599 355 ft 0 kts 81°
2026-05-09 10:07 48.99586 2.55601 355 ft 1 kts 81°
2026-05-09 10:07 48.99588 2.55615 354 ft 3 kts 81°
2026-05-09 10:07 48.99605 2.55929 354 ft 60 kts 85°
2026-05-09 10:08 48.99656 2.56892 356 ft 122 kts 85°
2026-05-09 10:08 48.99736 2.58445 561 ft 163 kts 86°
2026-05-09 10:08 48.99827 2.60223 1319 ft 172 kts 86°
2026-05-09 10:08 48.99949 2.62057 2237 ft 176 kts 85°
2026-05-09 10:09 49.00043 2.63322 2590 ft 189 kts 85°
2026-05-09 10:09 49.00227 2.66170 3309 ft 215 kts 86°
2026-05-09 10:09 49.00321 2.67737 3662 ft 233 kts 85°
2026-05-09 10:09 49.00460 2.70271 4485 ft 247 kts 88°
2026-05-09 10:10 49.00578 2.72995 5305 ft 261 kts 89°
2026-05-09 10:10 49.00682 2.75785 6191 ft 270 kts 89°
2026-05-09 10:10 49.00860 2.78667 7082 ft 278 kts 78°
2026-05-09 10:10 49.01751 2.81349 7957 ft 287 kts 49°
2026-05-09 10:11 49.03353 2.83157 8847 ft 291 kts 22°
2026-05-09 10:11 49.05305 2.83736 9700 ft 292 kts 357°
2026-05-09 10:11 49.07341 2.83460 10384 ft 301 kts 351°
2026-05-09 10:11 49.09494 2.83011 10748 ft 322 kts 350°
2026-05-09 10:12 49.11783 2.82531 11145 ft 341 kts 351°
2026-05-09 10:12 49.14230 2.82070 11547 ft 358 kts 352°
2026-05-09 10:12 49.16729 2.81658 11974 ft 374 kts 353°
2026-05-09 10:12 49.19364 2.81277 12408 ft 387 kts 353°
2026-05-09 10:13 49.22069 2.80933 13124 ft 392 kts 354°
2026-05-09 10:13 49.24803 2.80619 13839 ft 396 kts 354°
2026-05-09 10:13 49.27563 2.80327 14510 ft 400 kts 355°
2026-05-09 10:13 49.30362 2.80050 15138 ft 404 kts 355°
2026-05-09 10:14 49.33185 2.79783 15771 ft 408 kts 355°
2026-05-09 10:14 49.36025 2.79521 16379 ft 412 kts 355°
2026-05-09 10:14 49.38908 2.79261 17001 ft 416 kts 355°
2026-05-09 10:14 49.41805 2.79007 17601 ft 420 kts 355°
2026-05-09 10:15 49.44738 2.78752 18182 ft 424 kts 355°
2026-05-09 10:15 49.47697 2.78497 18699 ft 428 kts 356°
2026-05-09 10:15 49.50683 2.78239 19201 ft 431 kts 356°
2026-05-09 10:15 49.53689 2.77980 19704 ft 435 kts 356°
2026-05-09 10:16 49.56724 2.77717 20189 ft 438 kts 356°
2026-05-09 10:16 49.59778 2.77457 20657 ft 442 kts 356°
2026-05-09 10:16 49.62863 2.77195 21130 ft 445 kts 356°
2026-05-09 10:16 49.65959 2.76932 21589 ft 448 kts 356°
2026-05-09 10:17 49.69095 2.76666 22039 ft 452 kts 356°
2026-05-09 10:17 49.72242 2.76398 22493 ft 455 kts 356°
2026-05-09 10:17 49.75418 2.76128 22933 ft 458 kts 356°
2026-05-09 10:17 49.78609 2.75864 23361 ft 461 kts 358°
2026-05-09 10:18 49.81805 2.76270 23759 ft 464 kts 13°
2026-05-09 10:18 49.84825 2.78020 24121 ft 465 kts 27°
2026-05-09 10:18 49.88409 2.81090 24570 ft 468 kts 31°
2026-05-09 10:18 49.93982 2.86414 25265 ft 473 kts 33°
2026-05-09 10:19 49.99539 2.91925 25945 ft 477 kts 34°
2026-05-09 10:19 50.05172 2.97551 26652 ft 481 kts 34°
2026-05-09 10:19 50.10797 3.03166 27574 ft 479 kts 34°
2026-05-09 10:19 50.16411 3.08763 28492 ft 477 kts 34°
2026-05-09 10:20 50.22070 3.14135 29405 ft 476 kts 29°
2026-05-09 10:20 50.28015 3.18749 30301 ft 475 kts 26°
2026-05-09 10:20 50.33994 3.23041 31100 ft 473 kts 25°
2026-05-09 10:20 50.39916 3.27248 31863 ft 471 kts 26°
2026-05-09 10:21 50.45875 3.31736 32624 ft 469 kts 27°
2026-05-09 10:21 50.51740 3.36168 33369 ft 467 kts 25°
2026-05-09 10:21 50.57668 3.40408 34110 ft 466 kts 25°
2026-05-09 10:21 50.63500 3.44525 34702 ft 465 kts 24°
2026-05-09 10:22 50.69403 3.48679 35268 ft 465 kts 24°
2026-05-09 10:22 50.75308 3.52840 35826 ft 464 kts 24°
2026-05-09 10:22 50.79563 3.55842 36214 ft 464 kts 24°
2026-05-09 10:22 50.82516 3.57927 36504 ft 464 kts 24°
2026-05-09 10:23 50.85459 3.60009 36782 ft 463 kts 24°
2026-05-09 10:23 50.88370 3.62072 36943 ft 455 kts 24°
2026-05-09 10:23 50.91254 3.64118 37010 ft 454 kts 24°
2026-05-09 10:24 50.97062 3.68243 37059 ft 461 kts 24°
2026-05-09 10:24 51.02937 3.72426 37070 ft 464 kts 24°
2026-05-09 10:25 51.08801 3.76614 37056 ft 459 kts 24°
2026-05-09 10:25 51.14609 3.80774 37062 ft 458 kts 24°
2026-05-09 10:26 51.20429 3.84956 37064 ft 459 kts 24°
2026-05-09 10:26 51.26255 3.89151 37066 ft 459 kts 24°
2026-05-09 10:27 51.32068 3.93352 37072 ft 458 kts 24°
2026-05-09 10:27 51.37866 3.97555 37077 ft 458 kts 24°
2026-05-09 10:28 51.43669 4.01774 37079 ft 458 kts 24°
2026-05-09 10:28 51.48976 4.07264 37086 ft 459 kts 39°
2026-05-09 10:29 51.53836 4.13928 37085 ft 459 kts 41°
2026-05-09 10:29 51.58600 4.20775 37083 ft 459 kts 41°
2026-05-09 10:30 51.63318 4.27673 37085 ft 458 kts 42°
2026-05-09 10:30 51.68027 4.34621 37085 ft 459 kts 42°
2026-05-09 10:31 51.72727 4.41598 37098 ft 459 kts 42°
2026-05-09 10:31 51.77423 4.48601 37089 ft 459 kts 42°
2026-05-09 10:32 51.82098 4.55601 37090 ft 459 kts 42°
2026-05-09 10:32 51.86771 4.62623 37087 ft 459 kts 42°
2026-05-09 10:33 51.91447 4.69677 37088 ft 459 kts 42°
2026-05-09 10:33 51.95211 4.75371 37087 ft 459 kts 42°
2026-05-09 10:34 51.99877 4.82451 37090 ft 459 kts 42°
2026-05-09 10:34 52.06081 4.91896 37107 ft 460 kts 42°
2026-05-09 10:35 52.10803 4.99111 37104 ft 460 kts 42°
2026-05-09 10:35 52.19360 5.12248 37106 ft 459 kts 42°
2026-05-09 10:36 52.28575 5.26477 37105 ft 460 kts 42°
2026-05-09 10:36 52.37858 5.40902 37115 ft 459 kts 42°
2026-05-09 10:37 52.47110 5.55364 37114 ft 460 kts 42°
2026-05-09 10:37 52.56247 5.69734 37112 ft 460 kts 43°
2026-05-09 10:38 52.65548 5.84455 37105 ft 461 kts 43°
2026-05-09 10:38 52.74710 5.99049 37102 ft 460 kts 43°
2026-05-09 10:39 52.83895 6.13768 37106 ft 461 kts 43°
2026-05-09 10:39 52.93094 6.28604 37125 ft 461 kts 43°
2026-05-09 10:40 53.02266 6.43493 37138 ft 462 kts 43°
2026-05-09 10:40 53.11417 6.58448 37144 ft 461 kts 43°
2026-05-09 10:41 53.20816 6.72985 37142 ft 461 kts 40°
2026-05-09 10:41 53.30438 6.87127 37136 ft 461 kts 39°
2026-05-09 10:42 53.40086 7.01335 37139 ft 461 kts 40°
2026-05-09 10:42 53.49708 7.15597 37143 ft 461 kts 40°
2026-05-09 10:43 53.59302 7.29907 37142 ft 462 kts 40°
2026-05-09 10:43 53.68894 7.44304 37137 ft 461 kts 40°
2026-05-09 10:44 53.78466 7.58767 37143 ft 462 kts 40°
2026-05-09 10:44 53.88022 7.73293 37159 ft 462 kts 40°
2026-05-09 10:46 54.11859 8.09942 37165 ft 462 kts 40°
2026-05-09 10:46 54.21349 8.24699 37166 ft 462 kts 41°
2026-05-09 10:47 54.30770 8.39443 37168 ft 462 kts 41°
2026-05-09 10:47 54.40233 8.54351 37168 ft 462 kts 41°
2026-05-09 10:48 54.47517 8.65892 37167 ft 462 kts 41°
2026-05-09 10:48 54.52235 8.73401 37169 ft 462 kts 41°
2026-05-09 10:49 54.56953 8.80934 37171 ft 462 kts 41°
2026-05-09 10:49 54.61659 8.88474 37173 ft 462 kts 41°
2026-05-09 10:50 54.66378 8.96057 36816 ft 470 kts 42°
2026-05-09 10:50 54.68785 8.99938 36278 ft 472 kts 43°
2026-05-09 10:50 54.70873 9.04264 35752 ft 468 kts 58°
2026-05-09 10:50 54.72446 9.09154 35241 ft 463 kts 63°
2026-05-09 10:51 54.73867 9.14121 34739 ft 460 kts 64°
2026-05-09 10:51 54.75247 9.19118 34243 ft 460 kts 64°
2026-05-09 10:51 54.76619 9.24129 33663 ft 460 kts 64°
2026-05-09 10:51 54.77986 9.29111 33100 ft 456 kts 64°
2026-05-09 10:52 54.79342 9.34028 32570 ft 449 kts 64°
2026-05-09 10:52 54.80692 9.38885 32073 ft 444 kts 64°
2026-05-09 10:52 54.82033 9.43675 31548 ft 440 kts 64°
2026-05-09 10:52 54.83369 9.48412 31075 ft 437 kts 64°
2026-05-09 10:53 54.84706 9.53127 30611 ft 434 kts 63°
2026-05-09 10:53 54.86037 9.57798 30119 ft 431 kts 63°
2026-05-09 10:53 54.87367 9.62445 29579 ft 427 kts 63°
2026-05-09 10:53 54.88687 9.67037 29078 ft 423 kts 63°
2026-05-09 10:54 54.89994 9.71574 28573 ft 419 kts 63°
2026-05-09 10:54 54.91255 9.75941 28105 ft 417 kts 63°
2026-05-09 10:54 54.92116 9.78920 27787 ft 415 kts 63°
2026-05-09 10:54 54.93406 9.83379 27338 ft 411 kts 63°
2026-05-09 10:55 54.95100 9.89232 26734 ft 407 kts 63°
2026-05-09 10:55 54.95956 9.92190 26447 ft 405 kts 63°
2026-05-09 10:55 54.97631 9.97979 25875 ft 402 kts 63°
2026-05-09 10:55 54.98883 10.02307 25461 ft 399 kts 63°
2026-05-09 10:56 54.99724 10.05216 25175 ft 397 kts 64°
2026-05-09 10:56 55.00944 10.09443 24794 ft 394 kts 64°
2026-05-09 10:56 55.02169 10.13691 24402 ft 392 kts 64°
2026-05-09 10:56 55.03390 10.17929 24017 ft 390 kts 64°
2026-05-09 10:57 55.04619 10.22203 23600 ft 387 kts 64°
2026-05-09 10:57 55.05802 10.26325 23152 ft 384 kts 64°
2026-05-09 10:57 55.06991 10.30475 22734 ft 381 kts 64°
2026-05-09 10:57 55.08170 10.34595 22336 ft 379 kts 64°
2026-05-09 10:58 55.09343 10.38701 21945 ft 376 kts 64°
2026-05-09 10:58 55.10505 10.42777 21548 ft 374 kts 64°
2026-05-09 10:58 55.11658 10.46833 21164 ft 372 kts 64°
2026-05-09 10:58 55.12801 10.50856 20812 ft 368 kts 64°
2026-05-09 10:59 55.13806 10.54983 20322 ft 368 kts 70°
2026-05-09 10:59 55.14633 10.59191 19830 ft 364 kts 72°
2026-05-09 10:59 55.15398 10.63382 19338 ft 360 kts 73°
2026-05-09 10:59 55.16135 10.67540 18859 ft 356 kts 73°
2026-05-09 11:00 55.16858 10.71668 18366 ft 354 kts 73°
2026-05-09 11:00 55.17575 10.75755 17817 ft 352 kts 73°
2026-05-09 11:00 55.18295 10.79832 17299 ft 349 kts 73°
2026-05-09 11:00 55.19010 10.83849 16769 ft 344 kts 73°
2026-05-09 11:01 55.19724 10.87843 16244 ft 341 kts 73°
2026-05-09 11:01 55.20433 10.91787 15734 ft 338 kts 73°
2026-05-09 11:01 55.21138 10.95702 15229 ft 335 kts 73°
2026-05-09 11:01 55.21838 10.99583 14732 ft 333 kts 73°
2026-05-09 11:02 55.22534 11.03424 14243 ft 330 kts 74°
2026-05-09 11:02 55.23218 11.07203 13718 ft 327 kts 74°
2026-05-09 11:02 55.23900 11.10974 13166 ft 322 kts 74°
2026-05-09 11:02 55.24572 11.14695 12657 ft 318 kts 74°
2026-05-09 11:03 55.25232 11.18346 12265 ft 311 kts 74°
2026-05-09 11:03 55.25882 11.21945 12178 ft 308 kts 74°
2026-05-09 11:03 55.26536 11.25581 12197 ft 314 kts 74°
2026-05-09 11:03 55.27184 11.29197 12207 ft 314 kts 74°
2026-05-09 11:04 55.27839 11.32850 12206 ft 314 kts 74°
2026-05-09 11:04 55.28491 11.36499 12207 ft 313 kts 75°
2026-05-09 11:04 55.29145 11.40162 12212 ft 314 kts 74°
2026-05-09 11:04 55.29804 11.43853 11781 ft 317 kts 74°
2026-05-09 11:05 55.30460 11.47528 11269 ft 312 kts 75°
2026-05-09 11:05 55.31104 11.51136 10785 ft 307 kts 75°
2026-05-09 11:05 55.31736 11.54674 10299 ft 302 kts 75°
2026-05-09 11:05 55.32357 11.58157 9787 ft 297 kts 75°
2026-05-09 11:06 55.32965 11.61609 9258 ft 293 kts 75°
2026-05-09 11:06 55.33561 11.65010 8789 ft 288 kts 75°
2026-05-09 11:06 55.34140 11.68309 8386 ft 282 kts 75°
2026-05-09 11:06 55.34707 11.71553 8190 ft 269 kts 74°
2026-05-09 11:07 55.35243 11.74596 8218 ft 256 kts 74°
2026-05-09 11:07 55.35769 11.77590 8232 ft 258 kts 74°
2026-05-09 11:07 55.36296 11.80595 8228 ft 256 kts 75°
2026-05-09 11:07 55.36820 11.83594 8232 ft 256 kts 75°
2026-05-09 11:08 55.37343 11.86599 8226 ft 257 kts 75°
2026-05-09 11:08 55.37868 11.89611 8223 ft 256 kts 75°
2026-05-09 11:08 55.38384 11.92578 8220 ft 257 kts 75°
2026-05-09 11:08 55.38908 11.95595 8230 ft 257 kts 75°
2026-05-09 11:09 55.39431 11.98597 8111 ft 259 kts 75°
2026-05-09 11:09 55.39945 12.01582 7618 ft 263 kts 74°
2026-05-09 11:09 55.40475 12.04668 7117 ft 263 kts 74°
2026-05-09 11:09 55.41004 12.07755 6634 ft 263 kts 74°
2026-05-09 11:10 55.41530 12.10816 6253 ft 259 kts 74°
2026-05-09 11:10 55.42038 12.13769 6221 ft 245 kts 74°
2026-05-09 11:10 55.42533 12.16652 6218 ft 248 kts 74°
2026-05-09 11:10 55.43035 12.19555 6250 ft 248 kts 74°
2026-05-09 11:11 55.43537 12.22461 6101 ft 252 kts 74°
2026-05-09 11:11 55.44048 12.25448 5509 ft 257 kts 74°
2026-05-09 11:11 55.44561 12.28477 4735 ft 262 kts 74°
2026-05-09 11:11 55.45089 12.31581 4135 ft 263 kts 74°
2026-05-09 11:12 55.45610 12.34622 3591 ft 252 kts 74°
2026-05-09 11:12 55.46120 12.37466 3298 ft 239 kts 70°
2026-05-09 11:12 55.46848 12.39924 3197 ft 218 kts 60°
2026-05-09 11:12 55.47702 12.42036 2951 ft 207 kts 54°
2026-05-09 11:13 55.48626 12.43907 2731 ft 199 kts 49°
2026-05-09 11:13 55.49621 12.45578 2544 ft 197 kts 44°
2026-05-09 11:13 55.50654 12.47161 2368 ft 198 kts 42°
2026-05-09 11:13 55.51673 12.48668 2217 ft 176 kts 45°
2026-05-09 11:14 55.52002 12.49187 2220 ft 164 kts 45°
2026-05-09 11:15 55.52785 12.50426 1992 ft 155 kts 45°
2026-05-09 11:16 55.53557 12.51639 1998 ft 149 kts 45°
2026-05-09 11:16 55.54339 12.52861 2023 ft 149 kts 44°
2026-05-09 11:16 55.55168 12.54123 2423 ft 167 kts 43°
2026-05-09 11:16 55.56150 12.55392 2887 ft 185 kts 36°
2026-05-09 11:17 55.57242 12.56355 3477 ft 198 kts 23°
2026-05-09 11:17 55.58610 12.56952 3849 ft 207 kts 11°
2026-05-09 11:17 55.60073 12.57024 3926 ft 210 kts
2026-05-09 11:17 55.61464 12.57634 3703 ft 203 kts 21°
2026-05-09 11:18 55.62816 12.58369 3662 ft 207 kts 22°
2026-05-09 11:18 55.64165 12.58799 3414 ft 213 kts 359°
2026-05-09 11:18 55.65653 12.58375 3198 ft 207 kts 351°
2026-05-09 11:18 55.67058 12.57832 3115 ft 207 kts 349°
2026-05-09 11:19 55.68466 12.57246 3096 ft 208 kts 349°
2026-05-09 11:19 55.69871 12.56651 3055 ft 208 kts 349°
2026-05-09 11:19 55.71263 12.56052 3045 ft 204 kts 348°
2026-05-09 11:19 55.72637 12.55456 3043 ft 206 kts 348°
2026-05-09 11:20 55.74033 12.54850 3045 ft 205 kts 348°
2026-05-09 11:20 55.75418 12.54246 3050 ft 206 kts 349°
2026-05-09 11:20 55.76808 12.53649 3075 ft 205 kts 348°
2026-05-09 11:20 55.78200 12.53048 3091 ft 207 kts 349°
2026-05-09 11:21 55.79582 12.52449 3253 ft 200 kts 348°
2026-05-09 11:21 55.80961 12.51848 3387 ft 211 kts 349°
2026-05-09 11:21 55.82409 12.51238 3893 ft 216 kts 349°
2026-05-09 11:21 55.83825 12.50619 4466 ft 199 kts 348°
2026-05-09 11:22 55.85179 12.50013 4815 ft 208 kts 348°
2026-05-09 11:22 55.86579 12.49268 5007 ft 209 kts 339°
2026-05-09 11:22 55.87798 12.47820 5155 ft 215 kts 318°
2026-05-09 11:22 55.88615 12.45606 5281 ft 217 kts 291°
2026-05-09 11:23 55.88798 12.42966 5421 ft 217 kts 265°
2026-05-09 11:23 55.88417 12.40331 5204 ft 218 kts 248°
2026-05-09 11:23 55.87875 12.37865 5092 ft 212 kts 246°
2026-05-09 11:23 55.87308 12.35417 5086 ft 215 kts 246°
2026-05-09 11:24 55.86728 12.32971 5076 ft 214 kts 245°
2026-05-09 11:24 55.86133 12.30505 5051 ft 230 kts 245°
2026-05-09 11:24 55.85465 12.27786 5030 ft 238 kts 245°
2026-05-09 11:24 55.84814 12.25118 5037 ft 235 kts 245°
2026-05-09 11:25 55.84164 12.22456 5044 ft 234 kts 245°
2026-05-09 11:25 55.83514 12.19799 5051 ft 235 kts 245°
2026-05-09 11:25 55.82864 12.17137 5042 ft 234 kts 245°
2026-05-09 11:25 55.82207 12.14503 5023 ft 233 kts 241°
2026-05-09 11:26 55.81157 12.12379 5036 ft 229 kts 208°
2026-05-09 11:26 55.79659 12.11650 5055 ft 224 kts 174°
2026-05-09 11:26 55.78230 12.12551 5065 ft 220 kts 139°
2026-05-09 11:26 55.77383 12.14710 5051 ft 216 kts 104°
2026-05-09 11:27 55.77259 12.17368 5036 ft 216 kts 89°
2026-05-09 11:27 55.77326 12.20026 5031 ft 216 kts 86°
2026-05-09 11:27 55.77434 12.22678 5010 ft 214 kts 85°
2026-05-09 11:27 55.77561 12.25337 5014 ft 217 kts 85°
2026-05-09 11:28 55.77704 12.27983 5004 ft 215 kts 86°
2026-05-09 11:28 55.77851 12.30631 5014 ft 216 kts 85°
2026-05-09 11:28 55.78001 12.33297 5030 ft 216 kts 85°
2026-05-09 11:28 55.78156 12.35957 5052 ft 217 kts 85°
2026-05-09 11:29 55.78312 12.38623 5057 ft 217 kts 85°
2026-05-09 11:29 55.78462 12.41294 5070 ft 216 kts 85°
2026-05-09 11:29 55.78611 12.43932 5038 ft 215 kts 85°
2026-05-09 11:29 55.78758 12.46569 5061 ft 218 kts 85°
2026-05-09 11:30 55.78909 12.49275 4948 ft 216 kts 84°
2026-05-09 11:30 55.79057 12.51898 4682 ft 216 kts 85°
2026-05-09 11:30 55.79207 12.54580 4461 ft 215 kts 85°
2026-05-09 11:30 55.79359 12.57228 4221 ft 215 kts 84°
2026-05-09 11:31 55.79513 12.59896 3877 ft 221 kts 85°
2026-05-09 11:31 55.79672 12.62625 3402 ft 227 kts 85°
2026-05-09 11:31 55.79839 12.65376 3167 ft 220 kts 85°
2026-05-09 11:31 55.80001 12.68029 3079 ft 213 kts 85°
2026-05-09 11:32 55.80047 12.70633 3045 ft 211 kts 103°
2026-05-09 11:32 55.79448 12.73013 3025 ft 213 kts 121°
2026-05-09 11:32 55.78655 12.75209 3027 ft 210 kts 123°
2026-05-09 11:32 55.77826 12.77361 2936 ft 211 kts 124°
2026-05-09 11:33 55.77011 12.79416 2804 ft 199 kts 125°
2026-05-09 11:33 55.76206 12.81412 2419 ft 198 kts 125°
2026-05-09 11:33 55.74183 12.84126 2087 ft 189 kts 175°
2026-05-09 11:34 55.72859 12.84060 2046 ft 190 kts 184°
2026-05-09 11:34 55.71593 12.83318 2020 ft 189 kts 207°
2026-05-09 11:34 55.70698 12.81862 2030 ft 165 kts 231°
2026-05-09 11:34 55.70168 12.80150 1995 ft 155 kts 241°
2026-05-09 11:35 55.69562 12.78583 1951 ft 155 kts 227°
2026-05-09 11:35 55.68874 12.77171 1923 ft 146 kts 226°
2026-05-09 11:35 55.68216 12.75818 1686 ft 144 kts 226°
2026-05-09 11:35 55.67576 12.74485 1446 ft 141 kts 226°
2026-05-09 11:36 55.67220 12.73782 1306 ft 139 kts 217°
2026-05-09 11:36 55.67024 12.73535 1233 ft 139 kts 210°
2026-05-09 11:36 55.66213 12.72616 968 ft 134 kts 216°
2026-05-09 11:36 55.65566 12.71436 827 ft 136 kts 227°
2026-05-09 11:37 55.64868 12.70299 688 ft 136 kts 216°
2026-05-09 11:37 55.64156 12.69319 486 ft 125 kts 219°
2026-05-09 11:37 55.63540 12.68303 281 ft 117 kts 221°
2026-05-09 11:37 55.62945 12.67356 168 ft 118 kts 218°
2026-05-09 11:38 55.62322 12.66425 21 ft 117 kts 218°
2026-05-09 11:38 55.61755 12.65552 18 ft 97 kts 223°
2026-05-09 11:38 55.61365 12.64938 23 ft 52 kts 222°
2026-05-09 11:38 55.61248 12.64597 19 ft 23 kts 252°
2026-05-09 11:39 55.61207 12.64392 17 ft 7 kts 254°
2026-05-09 11:39 55.61191 12.64297 19 ft 9 kts 252°
2026-05-09 11:39 55.61184 12.64179 17 ft 10 kts 284°
2026-05-09 11:40 55.61310 12.64148 19 ft 12 kts 33°
2026-05-09 11:40 55.61387 12.64238 17 ft 15 kts 33°
2026-05-09 11:40 55.61478 12.64343 18 ft 16 kts 29°
2026-05-09 11:40 55.61583 12.64463 17 ft 20 kts 33°
2026-05-09 11:41 55.61715 12.64618 19 ft 25 kts 32°
2026-05-09 11:41 55.61874 12.64798 17 ft 29 kts 33°
2026-05-09 11:41 55.61919 12.64849 17 ft 0 kts 33°
2026-05-09 11:42 55.61924 12.64854 17 ft 3 kts 33°
2026-05-09 11:42 55.61938 12.64871 18 ft 0 kts 33°
2026-05-09 11:44 55.61942 12.64876 17 ft 3 kts 33°
2026-05-09 11:44 55.61971 12.64909 17 ft 7 kts 33°
2026-05-09 11:45 55.62022 12.64967 19 ft 11 kts 33°
2026-05-09 11:45 55.62096 12.65053 18 ft 15 kts 33°
2026-05-09 11:45 55.62194 12.65166 18 ft 19 kts 34°
2026-05-09 11:45 55.62260 12.65205 17 ft 7 kts 358°
2026-05-09 11:46 55.62323 12.65205 19 ft 11 kts
2026-05-09 11:46 55.62409 12.65203 19 ft 14 kts 357°
2026-05-09 11:46 55.62518 12.65196 17 ft 18 kts 357°
2026-05-09 11:46 55.62628 12.65204 17 ft 8 kts 22°
2026-05-09 11:47 55.62673 12.65244 17 ft 7 kts 11°
2026-05-09 11:47 55.62711 12.65250 17 ft 4 kts
2026-05-09 11:47 55.62724 12.65252 17 ft 1 kts
2026-05-09 11:47 55.62726 12.65253 17 ft 0 kts